TIBA-1

Last updated on Thu Feb 05 2026 00:02:52 GMT+0000 (Coordinated Universal Time)

1 44800U 19080A 26035.27924517 .00000150 00000+0 00000+0 0 9991 2 44800 0.0543 350.6824 0001432 321.6483 318.1450 1.00275829 22724
UTC large
Height (km)
Speed (km/s)
/
Latitude / Longitude
Inclination (degrees)
Orbital Period (minutes)
Azimuth
Elevation
Range (km)
Doppler Factor

Next 0 passes for location: London (51.5072 / 0.1276)

Sorry there are no passes over London.